Regional Weather Roundup
Issued by NWS Newport/Morehead, NC

Current Version | Previous Version | Graphics & Text | Print | Product List | Glossary On
Versions: 1 2 3 4 5 6 7 8 9 10 11 12 13 14 15 16 17 18 19 20 21 22 23 24 25 26 27 28 29 30 31 32 33 34 35 36 37 38 39 40 41 42 43 44 45 46 47 48 49 50
000 ASUS42 KMHX 221625 RWRMHX WEATHER ROUNDUP FOR EASTERN NORTH CAROLINA NATIONAL WEATHER SERVICE NEWPORT/MOREHEAD CITY NC 1100 AM EST THU FEB 22 2018 NOTE: "FAIR" INDICATES FEW OR NO CLOUDS BELOW 12,000 FEET WITH NO SIGNIFICANT WEATHER AND/OR OBSTRUCTIONS TO VISIBILITY NCZ015>017-031-032-045>047-102-103-221700- NORTH COAST CITY SKY/WX TMP DP RH WIND PRES REMARKS EDENTON CLOUDY 72 67 83 SW6 30.49S ELIZABETH CITY CLOUDY 70 68 93 SW12 30.49S KITTY HAWK PTSUNNY N/A N/A N/A CALM 30.48F MANTEO PTSUNNY 67 64 88 W7 30.50S $$ NCZ045>047-081-094-103-104-221700- CENTRAL COAST CITY SKY/WX TMP DP RH WIND PRES REMARKS FRISCO FAIR 71 65 81 SW8 30.51F $$ NCZ095-097-098-100-101-221700- SOUTHERN COAST CITY SKY/WX TMP DP RH WIND PRES REMARKS BEAUFORT FAIR 74 65 73 SW10 30.51S CEDAR ISLAND NOT AVBL JACKSONVILLE PTSUNNY 75 64 68 SW9 30.49F PINEY ISLAND NOT AVBL WILMINGTON FAIR 76 61 59 SW10 30.50F $$ NCZ011>013-027>030-043-044-078>080-089-090>093-098-221700- COASTAL PLAIN CITY SKY/WX TMP DP RH WIND PRES REMARKS AHOSKIE CLOUDY 71 65 82 SW5 30.47F CLINTON PTSUNNY 72 67 84 W8 30.51S ELIZABETHTOWN NOT AVBL GOLDSBORO PTSUNNY 72 66 83 W13 30.48S GREENVILLE PTSUNNY 73 64 73 SW8 30.48S HAVELOCK PTSUNNY 75 66 73 SW13 30.51S KENANSVILLE CLOUDY 77 66 69 S8G16 30.49F KINSTON PTSUNNY 73 64 73 SW16G22 30.50S NEW BERN PTSUNNY 74 63 68 SW12G17 30.50F RICHLANDS CLOUDY 75 65 70 S10 30.51S ROCKY MOUNT CLOUDY 70 63 78 S9 30.48S WASHINGTON CLOUDY 74 64 70 SW12G17 30.49S WHITEVILLE FAIR 74 64 69 S7 30.50S $$ AMZ130-135-150-152-154-156-158-170-250-252-270-ANZ085-086-088-633-658-670-221700- MARINE OBSERVATIONS STATION/POSITION TIME TEMP WIND PRES WAVE SWELL AIR SEA DIR/SP/G HT/PER HT/PER (UTC) (F) (DEG/KT/KT) (MB) (FT/S) (FT/S) CHESAPEAKE LIGHT NOT AVBL 64 E VA BEACH 1550 55 50 230/ 10/ 12 1032.6 3/14 3/14 DUCK 1600 65 45 210/ 8/ 11 1031.8 2 E DUCK 1600 48 N/A 3/14 2/14 OREGON INLET 1600 61 62 180/ 7/ 8 1032.7 13E OREGON INLT 1548 49 N/A 4/14 3/14 HATTERAS CG 1600 71 60 230/ 9/ 12 1032.9 DIAMOND BUOY 1610 72 69 200/ 12/ 14 1033.4 CAPE LOOKOUT 1600 230/ 6/ 8 1033.6 BEAUFORT LAB 1600 71 59 210/ 5/ 8 1033.3 30 SE NEW RVR IN 1608 71 69 280/ 2/ 6 1033.4 30 SE NEW RVR IN 1600 70 N/A 4/15 2/15 27 SE WRIGHTSVLE 1508 68 67 270/ 4/ 8 1033.3 5 SE WRIGHTSVLE 1608 64 59 180/ 2/ 6 1033.0 225 S CAPE HAT 1550 72 74 120/ 8/ 12 1033.6 6/ 9 7/ 9 41 SE CHARLESTON 1610 71 69 80/ 2/ 4 1032.5 $$

USA.gov is the U.S. government's official web portal to all federal, state and local government web resources and services.